#Datum;Uhrzeit;WR;Pac;DaySum;Status;WR;Pac;DaySum;Status;Pdc1;Udc;Temp;WR;Pac;DaySum;Status;Pdc1;Udc;Temp;WR;Pac;DaySum;Status;Pdc1;Udc;Temp;WR;Pac;DaySum;Status;Pdc1;Pdc2;Udc1;Udc2;Temp;WR;Pac;DaySum;Status;Pdc1;Pdc2;Udc1;Udc2;Temp;WR;Pac;DaySum;Status;Pdc1;Udc;Temp;WR;Pac;DaySum;Status;Pdc1;Udc;Temp;WR;Pac;DaySum;Status;Pdc1;Udc;Temp
17.04.19;23:55:00;1;482;16163;0;2;0;37111;0;0;0;0;3;0;23587;0;0;0;0;4;0;34890;0;0;0;0;5;0;81159;0;0;0;0;0;0;6;0;61619;0;0;0;0;0;0;7;0;47596;0;0;0;0;8;0;47119;0;0;0;0;9;0;25920;0;0;0;0
17.04.19;23:50:00;1;526;16123;0;2;0;37111;0;0;0;0;3;0;23587;0;0;0;0;4;0;34890;0;0;0;0;5;0;81159;0;0;0;0;0;0;6;0;61619;0;0;0;0;0;0;7;0;47596;0;0;0;0;8;0;47119;0;0;0;0;9;0;25920;0;0;0;0
17.04.19;23:45:00;1;546;16079;0;2;0;37111;0;0;0;0;3;0;23587;0;0;0;0;4;0;34890;0;0;0;0;5;0;81159;0;0;0;0;0;0;6;0;61619;0;0;0;0;0;0;7;0;47596;0;0;0;0;8;0;47119;0;0;0;0;9;0;25920;0;0;0;0
17.04.19;23:40:00;1;547;16033;0;2;0;37111;0;0;0;0;3;0;23587;0;0;0;0;4;0;34890;0;0;0;0;5;0;81159;0;0;0;0;0;0;6;0;61619;0;0;0;0;0;0;7;0;47596;0;0;0;0;8;0;47119;0;0;0;0;9;0;25920;0;0;0;0
17.04.19;23:35:00;1;547;15987;0;2;0;37111;0;0;0;0;3;0;23587;0;0;0;0;4;0;34890;0;0;0;0;5;0;81159;0;0;0;0;0;0;6;0;61619;0;0;0;0;0;0;7;0;47596;0;0;0;0;8;0;47119;0;0;0;0;9;0;25920;0;0;0;0
17.04.19;23:30:00;1;564;15942;0;2;0;37111;0;0;0;0;3;0;23587;0;0;0;0;4;0;34890;0;0;0;0;5;0;81159;0;0;0;0;0;0;6;0;61619;0;0;0;0;0;0;7;0;47596;0;0;0;0;8;0;47119;0;0;0;0;9;0;25920;0;0;0;0
17.04.19;23:25:00;1;591;15895;0;2;0;37111;0;0;0;0;3;0;23587;0;0;0;0;4;0;34890;0;0;0;0;5;0;81159;0;0;0;0;0;0;6;0;61619;0;0;0;0;0;0;7;0;47596;0;0;0;0;8;0;47119;0;0;0;0;9;0;25920;0;0;0;0
17.04.19;23:20:00;1;594;15845;0;2;0;37111;0;0;0;0;3;0;23587;0;0;0;0;4;0;34890;0;0;0;0;5;0;81159;0;0;0;0;0;0;6;0;61619;0;0;0;0;0;0;7;0;47596;0;0;0;0;8;0;47119;0;0;0;0;9;0;25920;0;0;0;0
17.04.19;23:15:00;1;593;15796;0;2;0;37111;0;0;0;0;3;0;23587;0;0;0;0;4;0;34890;0;0;0;0;5;0;81159;0;0;0;0;0;0;6;0;61619;0;0;0;0;0;0;7;0;47596;0;0;0;0;8;0;47119;0;0;0;0;9;0;25920;0;0;0;0
17.04.19;23:10:00;1;506;15746;0;2;0;37111;0;0;0;0;3;0;23587;0;0;0;0;4;0;34890;0;0;0;0;5;0;81159;0;0;0;0;0;0;6;0;61619;0;0;0;0;0;0;7;0;47596;0;0;0;0;8;0;47119;0;0;0;0;9;0;25920;0;0;0;0
17.04.19;23:05:00;1;486;15705;0;2;0;37111;0;0;0;0;3;0;23587;0;0;0;0;4;0;34890;0;0;0;0;5;0;81159;0;0;0;0;0;0;6;0;61619;0;0;0;0;0;0;7;0;47596;0;0;0;0;8;0;47119;0;0;0;0;9;0;25920;0;0;0;0
17.04.19;23:00:00;1;487;15664;0;2;0;37111;0;0;0;0;3;0;23587;0;0;0;0;4;0;34890;0;0;0;0;5;0;81159;0;0;0;0;0;0;6;0;61619;0;0;0;0;0;0;7;0;47596;0;0;0;0;8;0;47119;0;0;0;0;9;0;25920;0;0;0;0
17.04.19;22:55:00;1;487;15624;0;2;0;37111;0;0;0;0;3;0;23587;0;0;0;0;4;0;34890;0;0;0;0;5;0;81159;2;0;0;0;0;0;6;0;61619;2;0;0;0;0;0;7;0;47596;0;0;0;0;8;0;47119;0;0;0;0;9;0;25920;0;0;0;0
17.04.19;22:50:00;1;487;15583;0;2;0;37111;0;0;0;0;3;0;23587;0;0;0;0;4;0;34890;0;0;0;0;5;0;81159;2;0;0;0;0;0;6;0;61619;2;0;0;0;0;0;7;0;47596;0;0;0;0;8;0;47119;0;0;0;0;9;0;25920;0;0;0;0
17.04.19;22:45:00;1;489;15542;0;2;0;37111;0;0;0;0;3;0;23587;0;0;0;0;4;0;34890;0;0;0;0;5;0;81159;2;0;0;0;0;0;6;0;61619;2;0;0;0;0;0;7;0;47596;0;0;0;0;8;0;47119;0;0;0;0;9;0;25920;0;0;0;0
17.04.19;22:40:00;1;489;15501;0;2;0;37111;0;0;0;0;3;0;23587;0;0;0;0;4;0;34890;0;0;0;0;5;0;81159;2;0;0;0;0;0;6;0;61619;2;0;0;0;0;0;7;0;47596;0;0;0;0;8;0;47119;0;0;0;0;9;0;25920;0;0;0;0
17.04.19;22:35:00;1;530;15461;0;2;0;37111;0;0;0;0;3;0;23587;0;0;0;0;4;0;34890;0;0;0;0;5;0;81159;2;0;0;0;0;0;6;0;61619;2;0;0;0;0;0;7;0;47596;0;0;0;0;8;0;47119;0;0;0;0;9;0;25920;0;0;0;0
17.04.19;22:30:00;1;579;15416;0;2;0;37111;0;0;0;0;3;0;23587;0;0;0;0;4;0;34890;0;0;0;0;5;0;81159;2;0;0;0;0;0;6;0;61619;2;0;0;0;0;0;7;0;47596;0;0;0;0;8;0;47119;0;0;0;0;9;0;25920;0;0;0;0
17.04.19;22:25:00;1;615;15367;0;2;0;37111;0;0;0;0;3;0;23587;0;0;0;0;4;0;34890;0;0;0;0;5;0;81159;2;0;0;0;0;0;6;0;61619;2;0;0;0;0;0;7;0;47596;0;0;0;0;8;0;47119;0;0;0;0;9;0;25920;0;0;0;0
17.04.19;22:20:00;1;1218;15316;0;2;0;37111;0;0;0;0;3;0;23587;0;0;0;0;4;0;34890;0;0;0;0;5;0;81159;2;0;0;0;0;0;6;0;61619;2;0;0;0;0;0;7;0;47596;0;0;0;0;8;0;47119;0;0;0;0;9;0;25920;0;0;0;0
17.04.19;22:15:00;1;595;15219;0;2;0;37111;0;0;0;0;3;0;23587;0;0;0;0;4;0;34890;0;0;0;0;5;0;81159;2;0;0;0;0;0;6;0;61619;2;0;0;0;0;0;7;0;47596;0;0;0;0;8;0;47119;0;0;0;0;9;0;25920;0;0;0;0
17.04.19;22:10:00;1;636;15169;0;2;0;37111;0;0;0;0;3;0;23587;0;0;0;0;4;0;34890;0;0;0;0;5;0;81159;2;0;0;0;0;0;6;0;61619;2;0;0;0;0;0;7;0;47596;0;0;0;0;8;0;47119;0;0;0;0;9;0;25920;0;0;0;0
17.04.19;22:05:00;1;601;15117;0;2;0;37111;0;0;0;0;3;0;23587;0;0;0;0;4;0;34890;0;0;0;0;5;0;81159;2;0;0;0;0;0;6;0;61619;2;0;0;0;0;0;7;0;47596;0;0;0;0;8;0;47119;0;0;0;0;9;0;25920;0;0;0;0
17.04.19;22:00:00;1;610;15067;0;2;0;37111;0;0;0;0;3;0;23587;0;0;0;0;4;0;34890;0;0;0;0;5;0;81159;2;0;0;0;0;0;6;0;61619;2;0;0;0;0;0;7;0;47596;0;0;0;0;8;0;47119;0;0;0;0;9;0;25920;0;0;0;0
17.04.19;21:55:00;1;537;15016;0;2;0;37111;0;0;0;0;3;0;23587;0;0;0;0;4;0;34890;0;0;0;0;5;0;81159;2;0;0;0;0;0;6;0;61619;2;0;0;0;0;0;7;0;47596;0;0;0;0;8;0;47119;0;0;0;0;9;0;25920;0;0;0;0
17.04.19;21:50:00;1;486;14971;0;2;0;37111;0;0;0;0;3;0;23587;0;0;0;0;4;0;34890;0;0;0;0;5;0;81159;2;0;0;0;0;0;6;0;61619;2;0;0;0;0;0;7;0;47596;0;0;0;0;8;0;47119;0;0;0;0;9;0;25920;0;0;0;0
17.04.19;21:45:00;1;487;14931;0;2;0;37111;0;0;0;0;3;0;23587;0;0;0;0;4;0;34890;0;0;0;0;5;0;81159;2;0;0;0;0;0;6;0;61619;2;0;0;0;0;0;7;0;47596;0;0;0;0;8;0;47119;0;0;0;0;9;0;25920;0;0;0;0
17.04.19;21:40:00;1;521;14889;0;2;0;37111;0;0;0;0;3;0;23587;0;0;0;0;4;0;34890;0;0;0;0;5;0;81159;2;0;0;0;0;0;6;0;61619;2;0;0;0;0;0;7;0;47596;0;0;0;0;8;0;47119;0;0;0;0;9;0;25920;0;0;0;0
17.04.19;21:35:00;1;522;14846;0;2;0;37111;0;0;0;0;3;0;23587;0;0;0;0;4;0;34890;0;0;0;0;5;0;81159;2;0;0;0;0;0;6;0;61619;2;0;0;0;0;0;7;0;47596;0;0;0;0;8;0;47119;0;0;0;0;9;0;25920;0;0;0;0
17.04.19;21:30:00;1;521;14802;0;2;0;37111;0;0;0;0;3;0;23587;0;0;0;0;4;0;34890;0;0;0;0;5;0;81159;2;0;0;0;0;0;6;0;61619;2;0;0;0;0;0;7;0;47596;0;0;0;0;8;0;47119;0;0;0;0;9;0;25920;0;0;0;0
17.04.19;21:25:00;1;482;14759;0;2;0;37111;0;0;0;0;3;0;23587;0;0;0;0;4;0;34890;0;0;0;0;5;0;81159;2;0;0;0;0;0;6;0;61619;2;0;0;0;0;0;7;0;47596;0;0;0;0;8;0;47119;0;0;0;0;9;0;25920;0;0;0;0
17.04.19;21:20:00;1;499;14719;0;2;0;37111;0;0;0;0;3;0;23587;0;0;0;0;4;0;34890;0;0;0;0;5;0;81159;2;0;0;0;0;0;6;0;61619;2;0;0;0;0;0;7;0;47596;0;0;0;0;8;0;47119;0;0;0;0;9;0;25920;0;0;0;0
17.04.19;21:15:00;1;542;14677;0;2;0;37111;0;0;0;0;3;0;23587;0;0;0;0;4;0;34890;0;0;0;0;5;0;81159;2;0;0;0;0;0;6;0;61619;2;0;0;0;0;0;7;0;47596;0;0;0;0;8;0;47119;0;0;0;0;9;0;25920;0;0;0;0
17.04.19;21:10:00;1;541;14631;0;2;0;37111;0;0;0;0;3;0;23587;0;0;0;0;4;0;34890;0;0;0;0;5;0;81159;2;0;0;0;0;0;6;0;61619;2;0;0;0;0;0;7;0;47596;0;0;0;0;8;0;47119;0;0;0;0;9;0;25920;0;0;0;0
17.04.19;21:05:00;1;542;14586;0;2;0;37111;0;0;0;0;3;0;23587;0;0;0;0;4;0;34890;0;0;0;0;5;0;81159;2;0;0;0;0;0;6;0;61619;2;0;0;0;0;0;7;0;47596;0;0;0;0;8;0;47119;0;0;0;0;9;0;25920;0;0;0;0
17.04.19;21:00:00;1;588;14539;0;2;0;37111;0;0;0;0;3;0;23587;0;0;0;0;4;0;34890;0;0;0;0;5;0;81159;2;0;0;0;0;0;6;0;61619;2;0;0;0;0;0;7;0;47596;0;0;0;0;8;0;47119;0;0;0;0;9;0;25920;0;0;0;0
17.04.19;20:55:00;1;589;14490;0;2;0;37111;0;0;0;0;3;0;23587;0;0;0;0;4;0;34890;0;0;0;0;5;0;81159;2;0;0;0;0;0;6;0;61619;2;0;0;0;0;0;7;0;47596;0;0;0;0;8;0;47119;0;0;0;0;9;0;25920;0;0;0;0
17.04.19;20:50:00;1;621;14441;0;2;0;37111;0;0;0;0;3;0;23587;0;0;0;0;4;0;34890;0;0;0;0;5;0;81159;2;0;0;0;0;0;6;0;61619;2;0;0;0;0;0;7;0;47596;0;0;0;0;8;0;47119;0;0;0;0;9;0;25920;0;0;0;0
17.04.19;20:45:00;1;630;14389;0;2;0;37111;0;0;0;0;3;0;23587;0;0;0;0;4;0;34890;0;0;0;0;5;0;81159;2;0;0;0;0;0;6;0;61619;2;0;0;0;0;0;7;0;47596;0;0;0;0;8;0;47119;0;0;0;0;9;0;25920;0;0;0;0
17.04.19;20:40:00;1;616;14336;0;2;0;37111;0;0;0;0;3;0;23587;0;0;0;0;4;0;34890;0;0;0;0;5;0;81159;2;0;0;0;0;0;6;0;61619;2;0;0;0;0;0;7;0;47596;0;0;0;0;8;0;47119;0;0;0;0;9;0;25920;0;0;0;0
17.04.19;20:35:00;1;543;14285;0;2;0;37111;0;0;0;0;3;0;23587;0;0;0;0;4;0;34890;0;0;0;0;5;0;81159;2;0;0;0;0;0;6;0;61619;2;0;0;0;0;0;7;0;47596;0;0;0;0;8;0;47119;0;0;0;0;9;0;25920;0;0;0;0
17.04.19;20:30:00;1;529;14239;0;2;0;37111;0;0;0;0;3;0;23587;0;0;0;0;4;0;34890;0;0;0;0;5;0;81159;2;0;0;0;0;0;6;0;61619;2;0;0;0;0;0;7;0;47596;0;0;0;0;8;0;47119;0;0;0;0;9;0;25920;0;0;0;0
17.04.19;20:25:00;1;518;14195;0;2;0;37111;0;0;41;4;3;0;23587;0;0;179;18;4;0;34890;0;0;0;0;5;0;81159;2;0;0;0;0;0;6;0;61619;2;0;0;0;0;0;7;0;47596;0;0;0;0;8;0;47119;0;0;0;0;9;0;25920;0;0;0;0
17.04.19;20:20:00;1;485;14151;0;2;0;37111;6;0;288;27;3;0;23587;6;0;330;28;4;0;34890;0;0;60;24;5;0;81159;2;0;0;0;0;0;6;0;61619;2;0;0;0;0;0;7;0;47596;0;0;0;0;8;0;47119;0;0;0;0;9;0;25920;0;0;0;0
17.04.19;20:15:00;1;481;14111;0;2;0;37111;6;0;322;27;3;0;23587;6;2;376;28;4;0;34890;1;0;104;29;5;0;81159;2;0;0;82;82;14;6;0;61619;2;2;0;35;57;9;7;0;47596;0;0;0;0;8;0;47119;0;0;0;0;9;0;25920;0;0;49;4
17.04.19;20:10:00;1;696;14070;0;2;0;37111;6;0;356;28;3;0;23587;6;1;432;29;4;0;34890;1;0;153;29;5;0;81159;23;0;0;368;403;36;6;0;61619;23;10;0;180;472;34;7;0;47596;6;0;299;27;8;0;47119;6;0;300;26;9;0;25920;6;0;311;22
17.04.19;20:05:00;1;763;14015;0;2;0;37111;6;0;380;28;3;1;23587;6;3;458;29;4;0;34890;1;0;196;30;5;7;81159;26;0;0;386;584;36;6;0;61619;23;9;0;181;530;35;7;0;47596;6;0;376;27;8;0;47119;6;0;378;27;9;0;25920;6;0;398;22
17.04.19;20:00:00;1;890;13949;0;2;0;37111;6;0;395;29;3;4;23587;6;8;458;29;4;0;34890;1;0;211;31;5;11;81158;26;0;1;402;634;37;6;0;61619;23;9;0;182;553;35;7;0;47596;6;1;412;27;8;0;47119;6;1;412;27;9;0;25920;3;2;418;23
17.04.19;19:55:00;1;819;13874;0;2;23;37111;6;45;379;30;3;0;23587;6;0;524;30;4;0;34890;3;0;200;31;5;77;81156;4;0;12;367;575;38;6;0;61619;23;5;4;502;564;36;7;0;47596;6;2;432;28;8;0;47119;6;4;418;27;9;3;25920;6;2;464;23
17.04.19;19:50:00;1;847;13806;0;2;73;37109;4;109;359;31;3;10;23587;4;20;497;30;4;5;34890;3;5;200;32;5;97;81149;4;4;22;367;575;38;6;55;61619;4;23;23;445;347;37;7;2;47596;4;4;438;28;8;0;47119;6;4;451;28;9;0;25920;6;3;492;23
17.04.19;19:45:00;1;901;13727;0;2;102;37103;4;139;359;32;3;12;23586;6;20;537;31;4;16;34890;3;17;198;32;5;128;81141;4;19;38;367;575;38;6;74;61614;4;38;31;445;347;37;7;9;47595;3;20;434;29;8;0;47119;4;8;461;28;9;1;25920;6;6;498;24
17.04.19;19:40:00;1;589;13644;0;2;189;37095;4;231;358;33;3;80;23585;4;120;457;32;4;36;34888;3;37;197;33;5;159;81130;4;40;51;367;576;38;6;92;61608;4;40;37;445;347;38;7;47;47594;4;80;360;29;8;37;47118;4;82;408;29;9;3;25920;6;6;521;24
17.04.19;19:35:00;1;2610;13576;0;2;261;37079;4;303;354;34;3;107;23578;4;141;358;32;4;62;34885;3;65;197;33;5;189;81117;4;63;67;367;576;39;6;114;61600;4;76;65;445;347;38;7;74;47590;4;109;386;30;8;71;47115;4;109;399;29;9;0;25920;6;0;536;25
17.04.19;19:30:00;1;2449;13360;0;2;408;37058;4;457;368;34;3;194;23569;4;231;371;33;4;91;34880;3;95;205;34;5;223;81101;4;75;84;367;576;39;6;131;61590;4;64;52;445;347;38;7;115;47584;4;153;415;30;8;99;47110;4;135;404;29;9;14;25920;3;22;514;25
17.04.19;19:25:00;1;890;13144;0;2;535;37024;4;589;371;35;3;270;23553;4;309;384;33;4;129;34873;5;134;221;34;5;258;81082;4;89;101;367;576;39;6;153;61579;4;72;54;445;347;38;7;169;47575;4;209;433;30;8;125;47101;4;161;409;30;9;21;25918;6;33;514;26
17.04.19;19:20:00;1;526;13071;0;2;665;36980;4;726;375;36;3;348;23531;4;393;400;34;4;147;34862;5;154;234;35;5;293;81060;4;112;113;367;576;39;6;170;61566;4;77;63;445;347;38;7;218;47561;4;261;437;30;8;146;47091;4;186;399;30;9;68;25917;4;94;439;27
17.04.19;19:15:00;1;526;13027;0;2;801;36925;4;865;375;37;3;420;23502;4;465;403;34;4;177;34850;5;184;231;36;5;321;81036;4;128;129;367;575;39;6;189;61552;4;106;86;445;347;38;7;253;47543;4;301;446;31;8;169;47079;4;212;434;30;9;82;25911;4;113;467;27
17.04.19;19:10:00;1;1129;12981;0;2;919;36858;4;989;381;38;3;496;23467;4;546;400;35;4;313;34835;5;325;200;36;5;352;81009;4;144;142;367;575;39;6;210;61536;4;119;102;445;346;39;7;299;47522;4;341;467;31;8;193;47065;4;235;424;31;9;99;25904;4;132;483;27
17.04.19;19:05:00;1;1152;12883;0;2;1055;36782;4;1132;371;39;3;565;23426;4;618;408;35;4;593;34810;5;617;201;37;5;381;80979;4;158;158;367;575;40;6;226;61518;4;129;110;445;346;39;7;357;47497;4;393;475;31;8;219;47049;4;266;446;31;9;107;25896;4;144;507;28
17.04.19;19:00:00;1;1161;12789;0;2;1208;36695;4;1292;385;40;3;629;23379;4;683;405;36;4;770;34761;5;802;225;38;5;415;80947;4;174;174;370;575;40;6;247;61499;4;125;105;445;347;39;7;392;47467;4;437;460;32;8;242;47030;4;293;463;32;9;112;25887;4;149;513;28
17.04.19;18:55:00;1;576;12699;0;2;1367;36594;4;1455;379;41;3;704;23327;4;760;402;36;4;919;34697;5;957;237;38;5;494;80912;4;212;202;398;615;40;6;322;61478;4;182;185;449;467;39;7;436;47435;4;480;412;32;8;282;47010;4;333;478;32;9;126;25878;4;162;507;29
17.04.19;18:50:00;1;556;12651;0;2;1513;36481;4;1611;387;42;3;767;23268;4;824;405;36;4;1038;34621;5;1082;237;39;5;573;80871;4;260;233;397;623;40;6;425;61451;4;189;202;570;548;39;7;544;47399;4;597;391;33;8;332;46987;4;374;432;33;9;140;25867;4;174;515;29
17.04.19;18:45:00;1;593;12604;0;2;1659;36355;4;1764;394;43;3;836;23204;4;896;403;37;4;1147;34535;5;1195;235;40;5;668;80823;4;299;271;401;631;41;6;508;61414;4;261;276;574;551;39;7;697;47353;4;753;393;33;8;506;46959;4;553;444;33;9;155;25855;4;188;526;30
17.04.19;18:40:00;1;596;12553;0;2;1803;36217;4;1915;392;44;3;923;23135;4;989;417;38;4;1272;34439;5;1325;236;40;5;789;80766;4;367;327;404;638;41;6;596;61371;4;295;306;573;557;40;7;916;47296;4;975;409;34;8;775;46917;4;830;437;34;9;163;25842;4;198;529;30
17.04.19;18:35:00;1;580;12503;0;2;1956;36067;4;2073;387;45;3;998;23058;4;1064;409;38;4;1406;34334;5;1465;231;41;5;935;80699;4;446;385;414;645;41;6;703;61321;4;354;358;586;553;40;7;1214;47221;4;1289;421;34;8;1016;46853;4;1076;371;34;9;161;25829;4;196;430;31
17.04.19;18:30:00;1;583;12455;0;2;2097;35904;4;2224;390;46;3;1083;22975;4;1152;413;39;4;1538;34217;5;1602;232;42;5;1092;80620;4;531;454;408;651;42;6;837;61261;4;422;427;585;557;40;7;1555;47119;4;1636;444;35;8;1351;46770;4;1429;422;35;9;199;25816;4;233;364;32
17.04.19;18:25:00;1;688;12406;0;2;2206;35730;4;2338;395;47;3;1160;22885;4;1232;418;39;4;1644;34088;5;1713;234;42;5;1260;80528;4;622;525;416;658;42;6;965;61191;4;498;498;591;558;40;7;1784;46990;4;1890;466;35;8;1709;46658;4;1801;454;35;9;320;25799;4;356;415;33
17.04.19;18:20:00;1;638;12354;0;2;2345;35546;4;2482;392;48;3;1233;22789;4;1308;428;40;4;1763;33952;5;1836;233;43;5;1468;80421;4;726;613;414;670;42;6;1111;61109;4;561;562;589;565;41;7;1974;46842;4;2086;473;36;8;1968;46516;4;2072;472;36;9;661;25772;4;717;447;34
17.04.19;18:15:00;1;729;12294;0;2;2475;35351;4;2622;387;49;3;1291;22686;4;1370;428;40;4;1882;33805;5;1961;230;43;5;1661;80299;4;844;708;417;673;43;6;1274;61016;4;661;661;589;565;41;7;2142;46677;4;2254;464;36;8;2127;46352;4;2240;463;36;9;931;25718;4;1000;472;35
17.04.19;18:10:00;1;770;12233;0;2;2577;35145;4;2726;389;49;3;1393;22578;4;1475;435;41;4;1977;33649;5;2060;232;44;5;1861;80159;4;959;793;415;684;43;6;1423;60909;4;725;735;588;567;41;7;2297;46500;4;2418;469;37;8;2279;46176;4;2397;464;37;9;1112;25641;4;1186;467;36
17.04.19;18:05:00;1;632;12170;0;2;2674;34930;4;2833;385;50;3;1475;22463;4;1563;439;42;4;2077;33484;5;2164;231;44;5;2062;80002;4;1059;883;414;667;43;6;1581;60789;4;815;806;590;567;41;7;2437;46308;4;2559;467;37;8;2416;45986;4;2538;465;37;9;1210;25549;4;1289;480;37
17.04.19;18:00:00;1;538;12103;0;2;2799;34707;4;2964;391;51;3;1510;22340;4;1594;430;42;4;2195;33311;5;2286;230;45;5;2300;79828;4;1192;986;412;679;44;6;1750;60657;4;899;880;588;566;42;7;2588;46106;4;2724;465;38;8;2572;45784;4;2706;464;38;9;1315;25448;4;1404;491;37
17.04.19;17:55:00;1;549;12058;0;2;2911;34475;4;3078;382;52;3;1599;22214;4;1691;444;42;4;2292;33129;5;2387;230;45;5;2510;79636;4;1310;1087;412;677;44;6;1907;60510;4;951;929;585;558;42;7;2734;45890;4;2886;467;38;8;2720;45571;4;2860;466;38;9;1424;25339;4;1516;496;38
17.04.19;17:50:00;1;526;12012;0;2;3024;34232;4;3200;379;52;3;1675;22081;4;1767;439;43;4;2402;32938;5;2502;228;46;5;2773;79425;4;1456;1199;416;678;45;6;2096;60349;4;1095;1077;582;562;42;7;2889;45663;4;3039;463;39;8;2871;45345;4;3016;460;39;9;1531;25220;4;1631;510;39
17.04.19;17:45:00;1;527;11968;0;2;3125;33981;4;3308;386;53;3;1732;21942;4;1825;434;43;4;2503;32738;5;2607;227;46;5;2987;79194;4;1584;1303;410;674;45;6;2275;60174;4;1161;1140;580;562;42;7;3027;45423;4;3186;467;39;8;3007;45106;4;3164;465;39;9;1637;25093;4;1742;510;39
17.04.19;17:40:00;1;723;11925;0;2;3214;33721;4;3400;383;53;3;1777;21797;4;1874;429;44;4;2600;32530;5;2708;226;47;5;3223;78943;4;1713;1402;413;668;45;6;2447;59982;4;1256;1228;581;559;42;7;3169;45170;4;3333;464;39;8;3154;44856;4;3313;459;39;9;1716;24956;4;1823;510;40
17.04.19;17:35:00;1;533;11871;0;2;3302;33453;4;3491;380;54;3;1854;21649;4;1948;438;44;4;2690;32313;5;2802;225;47;5;3465;78673;4;1837;1508;413;660;45;6;2627;59777;4;1366;1329;582;556;43;7;3321;44906;4;3486;458;40;8;3292;44593;4;3462;466;40;9;1796;24814;4;1907;510;40
17.04.19;17:30:00;1;553;11827;0;2;3386;33177;4;3577;376;54;3;1925;21495;4;2028;431;44;4;2778;32089;5;2894;224;48;5;3695;78383;4;1971;1618;412;666;46;6;2809;59557;4;1441;1406;580;559;43;7;3447;44630;4;3628;462;40;8;3439;44319;4;3614;459;40;9;1877;24664;4;1993;511;41
17.04.19;17:25:00;1;715;11780;0;2;3458;32896;4;3652;369;54;3;1978;21335;4;2081;433;44;4;2848;31858;5;2966;224;48;5;3895;78075;4;2086;1705;408;658;46;6;2969;59322;4;1535;1494;578;560;43;7;3577;44343;4;3758;456;40;8;3549;44033;4;3734;455;41;9;1943;24508;4;2061;505;41
17.04.19;17:20:00;1;795;11719;0;2;3562;32609;4;3768;376;54;3;2068;21170;4;2178;441;45;4;2950;31621;5;3073;224;48;5;4148;77748;4;2224;1817;409;658;46;6;3152;59074;4;1653;1610;574;555;43;7;3710;44045;4;3898;452;41;8;3683;43737;4;3870;452;41;9;2012;24346;4;2134;506;42
17.04.19;17:15:00;1;887;11652;0;2;3628;32311;4;3832;371;55;3;2102;20998;4;2219;445;45;4;3024;31376;5;3150;223;49;5;4346;77402;4;2335;1914;408;656;47;6;3305;58810;4;1703;1651;572;553;44;7;3806;43736;4;3995;450;41;8;3773;43431;4;3970;455;41;9;2065;24179;4;2190;508;42
17.04.19;17:10:00;1;915;11576;0;2;3729;32009;4;3940;372;54;3;2206;20822;4;2321;445;45;4;3107;31124;5;3236;223;49;5;4572;77038;4;2462;2015;409;654;47;6;3476;58534;4;1774;1744;574;553;44;7;3921;43419;4;4119;453;42;8;3900;43116;4;4102;451;42;9;2139;24007;4;2267;501;42
17.04.19;17:05:00;1;692;11502;0;2;3775;31699;4;3993;376;54;3;2240;20639;4;2369;452;45;4;3175;30865;5;3307;222;49;5;4777;76656;4;2574;2109;406;653;47;6;3642;58243;4;1877;1826;573;555;44;7;4024;43093;4;4237;450;42;8;4011;42791;4;4214;446;42;9;2202;23829;4;2333;501;43
17.04.19;17:00:00;1;629;11445;0;2;3852;31385;4;4064;365;54;3;2288;20452;4;2408;444;44;4;3250;30601;5;3385;220;49;5;4995;76258;4;2694;2208;408;651;48;6;3820;57939;4;1957;1922;568;554;44;7;4121;42759;4;4332;448;42;8;4103;42458;4;4320;443;42;9;2255;23645;4;2391;495;43
17.04.19;16:55:00;1;1393;11392;0;2;3936;31063;4;4149;363;54;3;2333;20261;4;2457;444;44;4;3316;30330;5;3454;222;50;5;5204;75840;4;2824;2298;405;650;48;6;3969;57620;4;2047;1997;568;553;44;7;4237;42415;4;4448;444;43;8;4215;42116;4;4430;450;43;9;2315;23457;4;2451;499;44
17.04.19;16:50:00;1;1355;11275;0;2;3976;30735;4;4193;364;53;3;2371;20067;4;2494;445;44;4;3380;30054;5;3520;219;50;5;5391;75404;4;2932;2385;406;646;48;6;4106;57287;4;2109;2062;564;549;45;7;4326;42061;4;4544;443;43;8;4303;41765;4;4521;446;43;9;2365;23265;4;2507;498;44
17.04.19;16:45:00;1;747;11161;0;2;4051;30404;4;4273;369;53;3;2447;19870;4;2580;457;44;4;3454;29773;5;3598;219;50;5;5602;74955;4;3052;2472;403;647;48;6;4247;56946;4;2182;2118;564;549;45;7;4455;41701;4;4680;444;43;8;4430;41407;4;4655;442;43;9;2440;23068;4;2582;491;44
17.04.19;16:40:00;1;597;11096;0;2;4098;30067;4;4326;370;53;3;2486;19666;4;2617;453;44;4;3524;29485;5;3671;219;50;5;5800;74487;4;3154;2561;402;645;49;6;4400;56591;4;2276;2219;562;548;45;7;4551;41330;4;4783;448;43;8;4517;41038;4;4745;446;43;9;2487;22865;4;2632;498;45
17.04.19;16:35:00;1;567;11048;0;2;4129;29725;4;4352;361;54;3;2492;19459;4;2625;453;44;4;3555;29192;5;3703;220;50;5;5908;74003;4;3220;2614;401;646;49;6;4477;56224;4;2322;2253;561;548;45;7;4600;40951;4;4828;447;44;8;4554;40662;4;4785;446;44;9;2517;22657;4;2664;496;45
17.04.19;16:30:00;1;652;11000;0;2;4133;29382;4;4357;367;54;3;2494;19251;4;2626;449;44;4;3584;28895;5;3734;219;50;5;6072;73510;4;3320;2690;402;633;49;6;4603;55850;4;2376;2302;557;547;45;7;4671;40570;4;4907;444;44;8;4638;40282;4;4872;440;44;9;2556;22448;4;2702;488;45
17.04.19;16:25:00;1;660;10946;0;2;4150;29037;4;4374;356;54;3;2445;19043;4;2568;420;44;4;3603;28595;5;3753;218;50;5;6189;73004;4;3380;2743;398;632;49;6;4683;55465;4;2398;2333;554;543;45;7;4721;40179;4;4961;441;44;8;4670;39894;4;4912;438;44;9;2576;22235;4;2730;488;45
17.04.19;16:20:00;1;670;10891;0;2;4171;28692;4;4397;357;54;3;2519;18839;4;2650;438;44;4;3640;28296;5;3791;217;50;5;6350;72487;4;3461;2817;398;634;49;6;4802;55074;4;2482;2413;552;538;46;7;4772;39786;4;5009;443;44;8;4718;39507;4;4955;442;45;9;2617;22020;4;2767;487;46
17.04.19;16:15:00;1;730;10835;0;2;4218;28345;4;4449;355;54;3;2644;18630;4;2780;444;45;4;3697;27993;5;3851;217;50;5;6500;71958;4;3551;2885;396;629;49;6;4919;54674;4;2558;2463;554;532;46;7;4790;39389;4;5038;434;45;8;4756;39113;4;5005;433;45;9;2633;21802;4;2783;477;46
17.04.19;16:10:00;1;766;10777;0;2;4332;27992;4;4567;356;54;3;2715;18410;4;2850;444;45;4;3812;27685;5;3971;217;49;5;6754;71415;4;3697;3003;396;626;49;6;5114;54263;4;2629;2540;550;532;46;7;4922;38990;4;5181;432;45;8;4883;38717;4;5143;435;45;9;2704;21583;4;2861;483;46
17.04.19;16:05:00;1;931;10709;0;2;4392;27632;4;4630;353;55;3;2748;18184;4;2888;443;45;4;3886;27367;5;4048;218;49;5;6967;70851;4;3818;3099;395;625;49;6;5273;53838;4;2731;2631;551;536;46;7;5070;38579;4;5332;438;45;8;5016;38310;4;5273;434;45;9;2778;21357;4;2942;486;47
17.04.19;16:00:00;1;721;10638;0;2;4416;27266;4;4658;360;55;3;2767;17955;4;2905;442;45;4;3910;27044;5;4073;218;49;5;7117;70268;4;3899;3169;397;634;49;6;5382;53397;4;2767;2675;550;536;46;7;5110;38158;4;5369;439;45;8;5062;37893;4;5322;438;46;9;2809;21126;4;2970;485;47
17.04.19;15:55:00;1;825;10577;0;2;4456;26899;4;4694;359;55;3;2782;17724;4;2921;446;45;4;3947;26718;5;4111;214;48;5;7277;69675;4;3991;3230;397;634;49;6;5509;52948;4;2854;2761;552;535;46;7;5162;37731;4;5430;431;46;8;5131;37471;4;5385;431;46;9;2847;20892;4;3008;480;47
17.04.19;15:50:00;1;701;10513;0;2;4477;26527;4;4710;355;55;3;2797;17492;4;2937;449;46;4;3969;26389;5;4134;214;48;5;7398;69068;4;4067;3291;394;624;49;6;5603;52488;4;2907;2796;545;532;46;7;5222;37301;4;5491;428;46;8;5197;37044;4;5460;427;46;9;2876;20655;4;3038;481;47
17.04.19;15:45:00;1;702;10454;0;2;4470;26155;4;4709;363;55;3;2849;17259;4;2994;455;46;4;3979;26059;5;4144;214;48;5;7485;68451;4;4117;3330;390;634;48;6;5672;52021;4;2938;2841;544;532;46;7;5244;36867;4;5524;433;46;8;5223;36611;4;5484;428;46;9;2900;20415;4;3062;478;48
17.04.19;15:40:00;1;735;10391;0;2;4524;25782;4;4771;361;55;3;2887;17022;4;3032;449;46;4;4036;25727;5;4204;214;49;5;7653;67826;4;4208;3415;390;625;48;6;5797;51548;4;3004;2910;546;530;46;7;5271;36430;4;5544;431;46;8;5238;36175;4;5510;426;46;9;2909;20174;4;3076;477;48
17.04.19;15:35:00;1;1272;10314;0;2;4608;25404;4;4856;355;56;3;2938;16781;4;3088;449;46;4;4094;25390;5;4265;212;49;5;7869;67187;4;4330;3504;393;630;48;6;5967;51064;4;3088;2992;547;533;46;7;5420;35989;4;5699;431;46;8;5360;35739;4;5641;431;47;9;2987;19931;4;3157;479;48
17.04.19;15:30:00;1;668;10246;0;2;4605;25020;4;4854;358;55;3;2941;16537;4;3091;453;46;4;4108;25049;5;4279;214;50;5;7987;66531;4;4405;3565;392;628;48;6;6067;50566;4;3130;3047;545;534;46;7;5465;35538;4;5751;428;46;8;5413;35293;4;5703;425;47;9;3015;19682;4;3187;479;48
17.04.19;15:25:00;1;691;10190;0;2;4611;24636;4;4858;353;55;3;2947;16291;4;3097;450;46;4;4119;24707;5;4290;214;50;5;8117;65866;4;4474;3621;390;627;48;6;6172;50059;4;3183;3102;543;531;46;7;5440;35082;4;5718;423;47;8;5420;34841;4;5687;423;47;9;3014;19431;4;3180;467;48
17.04.19;15:20:00;1;639;10134;0;2;4570;24253;4;4817;356;55;3;2958;16046;4;3106;455;46;4;4139;24364;5;4311;212;49;5;8157;65190;4;4503;3636;384;626;48;6;6218;49544;4;3188;3118;537;526;47;7;5462;34631;4;5737;421;47;8;5449;34390;4;5721;422;47;9;3022;19180;4;3189;474;49